User: anonymous   Login
Location: Harwich
(41.6860°N, 70.0760°W)
Time: 20:57:53
(UTC-04:00)
Language:

N. Korean satellite - Orbit

View from above orbital plane
View from above orbital plane
View from above satellite
View from above satellite

Ground track
Ground track

The orbit data is extracted from the following two-line orbital elements,

1 39026U 12072A   19145.95388743 +.00000716 +00000-0 +28557-4 0  9994
2 39026 097.2109 149.8734 0038008 182.9389 177.1633 15.27752189357915
Epoch (UTC): 25 May 2019 22:53:35
Eccentricity: 0.0038008
inclination: 97.2109°
perigee height: 456 km
apogee height: 508 km
right ascension of ascending node: 149.8734°
argument of perigee: 182.9389°
revolutions per day: 15.27752189
mean anomaly at epoch: 177.1633°
orbit number at epoch: 35791

The dashed part of the orbit path shows where the satellite is in the earth's shadow,  

DLR